Weather History for KLUM - January, 2014

Change the Weather History Date:

Friday, January 24, 2014

  Actual Average (KEAU) Record (KEAU)
Temperature  
Mean Temperature 12 °F 14 °F  
Max Temperature 31 °F 24 °F 53 °F (1981)
Min Temperature -8 °F 5 °F -34 °F (1935)
Degree Days  
Heating Degree Days 54 51  
Month to date heating degree days 1219  
Since 1 July heating degree days 4395  
Cooling Degree Days 0 0  
Month to date cooling degree days 0  
Year to date cooling degree days 0  
Moisture  
Dew Point 11 °F    
Average Humidity 70    
Maximum Humidity 92    
Minimum Humidity 53    
Precipitation  
Precipitation 0.00 in 0.03 in 1.37 in (1967)
Month to date precipitation 0.69  
Year to date precipitation 0.69  
Snow  
Snow 0.00 in 0.40 in 8.50 in (1929)
Month to date snowfall 10.2  
Since 1 July snowfall 26.0  
Snow Depth -    
Sea Level Pressure  
Sea Level Pressure 29.67 in    
Wind  
Wind Speed 12 mph (SW)    
Max Wind Speed 22 mph    
Max Gust Speed 34 mph    
Visibility 8 miles    
Events Snow    
T = Trace of Precipitation, MM = Missing Value Source: NWS Daily Summary

Daily Weather History Graph

Daily Weather History Graph

Search for Another Location

Airport or City:

Trip Planner

Search our weather history database for the weather conditions in past years. The results will help you decide how hot, cold, wet, or windy it might be!

Date:

Astronomy

Jan. 24, 2014 Rise Set
Actual Time 7:35 AM CST 5:04 PM CST
Civil Twilight 7:03 AM CST 5:36 PM CST
Nautical Twilight 6:27 AM CST 6:12 PM CST
Astronomical Twilight 5:52 AM CST 6:46 PM CST
Moon 12:59 AM CST (1/24) 11:26 AM CST (1/24)
Length of Visible Light 10h 33m
Length of Day
9h 29m
Last Quarter, 44% of the Moon is Illuminated
Jan 24
Last Quarter
Jan 30
New
Feb 6
First Quarter
Feb 14
Full
Feb 22
Last Quarter

Hourly Weather History & Observations

Time (CST) Temp. Windchill Dew Point Humidity Pressure Visibility Wind Dir Wind Speed Gust Speed Precip Events Conditions
12:15 AM -8.9 °F -23.6 °F -14.6 °F 76% 30.23 in 10.0 mi SSE 6.9 mph - N/A   Clear
12:35 AM -7.1 °F -23.9 °F -13.0 °F 75% 30.21 in 10.0 mi SSE 9.2 mph - N/A   Clear
12:55 AM -6.2 °F -20.4 °F -12.1 °F 75% 30.18 in 10.0 mi SSE 6.9 mph - N/A   Clear
1:15 AM -5.1 °F -23.5 °F -11.2 °F 75% 30.16 in 10.0 mi SSE 11.5 mph - N/A   Clear
1:35 AM -4.2 °F -23.2 °F -10.7 °F 74% 30.13 in 10.0 mi SSE 12.7 mph - N/A   Clear
1:55 AM -3.1 °F -21.0 °F -10.1 °F 72% 30.10 in 10.0 mi South 11.5 mph - N/A   Clear
2:15 AM -0.6 °F -18.6 °F -8.5 °F 69% 30.06 in 10.0 mi South 12.7 mph - N/A   Mostly Cloudy
2:35 AM 1.4 °F -18.2 °F -8.0 °F 65% 30.03 in 10.0 mi South 16.1 mph 23.0 mph N/A   Overcast
2:55 AM 2.8 °F -12.7 °F -7.6 °F 62% 30.02 in 10.0 mi South 10.4 mph - N/A   Overcast
3:15 AM 4.6 °F -12.0 °F -6.7 °F 59% 29.99 in 10.0 mi South 12.7 mph 16.1 mph N/A   Overcast
3:35 AM 5.9 °F -8.9 °F -6.3 °F 57% 29.97 in 10.0 mi SSW 10.4 mph - N/A   Overcast
3:55 AM 6.6 °F -6.1 °F -5.8 °F 57% 29.95 in 10.0 mi South 8.1 mph - N/A   Overcast
4:15 AM 7.7 °F -7.4 °F -5.1 °F 56% 29.91 in 10.0 mi South 11.5 mph - N/A   Overcast
4:35 AM 9.1 °F -4.9 °F -4.4 °F 54% 29.88 in 10.0 mi South 10.4 mph - N/A   Overcast
4:55 AM 11.3 °F -7.0 °F -2.4 °F 54% 29.88 in 10.0 mi SSW 19.6 mph 25.3 mph N/A   Overcast
5:15 AM 12.6 °F -3.8 °F -0.9 °F 55% 29.88 in 7.0 mi SW 16.1 mph 26.5 mph N/A   Overcast
5:35 AM 12.7 °F -3.0 °F -0.2 °F 56% 29.87 in 10.0 mi SSW 15.0 mph 20.7 mph N/A   Overcast
5:55 AM 12.2 °F -3.7 °F 2.5 °F 65% 29.83 in 2.0 mi SSW 15.0 mph 23.0 mph N/A Snow Light Snow
6:15 AM 12.6 °F -3.3 °F 3.7 °F 68% 29.82 in 2.5 mi SSW 15.0 mph 23.0 mph N/A Snow Light Snow
6:35 AM 13.1 °F -3.1 °F 3.7 °F 66% 29.80 in 4.0 mi SSW 16.1 mph 25.3 mph N/A Snow Light Snow
6:55 AM 13.6 °F -0.7 °F 4.6 °F 67% 29.80 in 4.0 mi SSW 12.7 mph 17.3 mph N/A Snow Light Snow
7:15 AM 14.0 °F -0.2 °F 5.2 °F 68% 29.79 in 5.0 mi SSW 12.7 mph - N/A Snow Light Snow
7:35 AM 14.4 °F 3.3 °F 5.9 °F 69% 29.79 in 7.0 mi SW 8.1 mph - N/A   Overcast
7:55 AM 15.4 °F 3.0 °F 6.6 °F 68% 29.78 in 10.0 mi SSW 10.4 mph - N/A   Overcast
8:15 AM 16.0 °F 3.6 °F 6.8 °F 67% 29.76 in 10.0 mi SSW 10.4 mph - N/A   Overcast
8:35 AM 16.5 °F 3.6 °F 7.0 °F 66% 29.75 in 10.0 mi SSW 11.5 mph - N/A   Overcast
8:55 AM 16.7 °F 4.5 °F 7.2 °F 66% 29.73 in 10.0 mi SSW 10.4 mph - N/A   Overcast
9:15 AM 17.6 °F 5.7 °F 7.5 °F 65% 29.71 in 10.0 mi SSW 10.4 mph - N/A   Overcast
9:35 AM 18.1 °F 6.3 °F 8.1 °F 65% 29.70 in 10.0 mi SSW 10.4 mph - N/A   Overcast
9:55 AM 19.0 °F 7.5 °F 8.8 °F 64% 29.71 in 10.0 mi SW 10.4 mph - N/A   Overcast
10:15 AM 19.6 °F 9.7 °F 9.3 °F 64% 29.70 in 10.0 mi SW 8.1 mph - N/A   Overcast
10:35 AM 20.5 °F 8.6 °F 9.9 °F 64% 29.68 in 10.0 mi SSW 11.5 mph - N/A   Overcast
10:55 AM 21.6 °F 10.6 °F 10.4 °F 62% 29.68 in 10.0 mi SW 10.4 mph 17.3 mph N/A   Overcast
11:15 AM 22.6 °F 10.7 °F 11.5 °F 62% 29.65 in 10.0 mi SW 12.7 mph 16.1 mph N/A   Overcast
11:35 AM 23.0 °F 11.1 °F 12.2 °F 63% 29.63 in 10.0 mi SW 12.7 mph - N/A   Overcast
11:55 AM 23.7 °F 12.6 °F 13.1 °F 64% 29.63 in 10.0 mi SW 11.5 mph - N/A   Overcast
12:15 PM 24.4 °F 14.2 °F 13.6 °F 64% 29.60 in 10.0 mi SSW 10.4 mph - N/A   Overcast
12:35 PM 24.8 °F 14.6 °F 14.4 °F 65% 29.59 in 10.0 mi SW 10.4 mph - N/A   Overcast
12:55 PM 25.7 °F 15.1 °F 15.3 °F 65% 29.56 in 10.0 mi SW 11.5 mph - N/A   Overcast
1:15 PM 26.6 °F 16.2 °F 16.5 °F 66% 29.53 in 10.0 mi SSW 11.5 mph - N/A   Overcast
1:35 PM 27.1 °F 18.2 °F 17.6 °F 67% 29.53 in 10.0 mi WSW 9.2 mph - N/A   Overcast
1:55 PM 27.7 °F 18.2 °F 18.7 °F 69% 29.53 in 10.0 mi WSW 10.4 mph - N/A   Overcast
2:15 PM 28.0 °F 18.6 °F 19.4 °F 70% 29.51 in 10.0 mi WSW 10.4 mph 16.1 mph N/A   Overcast
2:35 PM 28.4 °F 17.5 °F 20.1 °F 71% 29.49 in 10.0 mi SW 13.8 mph 24.2 mph N/A   Overcast
2:55 PM 29.1 °F 21.3 °F 21.0 °F 72% 29.49 in 10.0 mi WSW 8.1 mph - N/A   Overcast
3:15 PM 29.5 °F 20.4 °F 21.4 °F 72% 29.50 in 10.0 mi WSW 10.4 mph 16.1 mph N/A   Overcast
3:35 PM 29.8 °F 19.8 °F 22.5 °F 74% 29.48 in 5.0 mi SW 12.7 mph - N/A Snow Light Snow
3:55 PM 30.2 °F 20.8 °F 23.0 °F 75% 29.46 in 10.0 mi SW 11.5 mph 18.4 mph N/A   Overcast
4:15 PM 30.2 °F 20.8 °F 23.4 °F 76% 29.45 in 7.0 mi SW 11.5 mph - N/A Snow Light Snow
4:35 PM 30.0 °F 20.5 °F 25.3 °F 83% 29.44 in 2.5 mi WSW 11.5 mph - N/A Snow Light Snow
4:55 PM 29.8 °F 21.5 °F 26.4 °F 87% 29.44 in 2.5 mi WSW 9.2 mph - N/A Snow Light Snow
5:15 PM 29.5 °F 19.9 °F 27.0 °F 90% 29.44 in 1.2 mi WSW 11.5 mph - N/A Snow Light Snow
5:35 PM 29.3 °F 19.6 °F 27.3 °F 92% 29.43 in 1.8 mi WSW 11.5 mph - N/A Snow Light Snow
5:55 PM 29.8 °F 18.9 °F 27.3 °F 90% 29.44 in 2.5 mi West 15.0 mph - N/A Snow Light Snow
6:15 PM 30.2 °F 18.9 °F 27.0 °F 88% 29.44 in 7.0 mi West 16.1 mph - N/A Snow Light Snow
6:35 PM 30.9 °F 20.2 °F 26.6 °F 84% 29.43 in 7.0 mi West 15.0 mph 20.7 mph N/A Snow Light Snow
6:55 PM 31.1 °F 20.1 °F 27.0 °F 85% 29.44 in 7.0 mi West 16.1 mph 23.0 mph N/A Snow Light Snow
7:15 PM 31.1 °F 21.4 °F 27.7 °F 87% 29.43 in 2.5 mi West 12.7 mph - N/A Snow Light Snow
7:35 PM 30.9 °F 21.7 °F 28.2 °F 90% 29.43 in 3.0 mi West 11.5 mph - N/A Snow Light Snow
7:55 PM 31.1 °F 21.9 °F 27.9 °F 88% 29.43 in 5.0 mi West 11.5 mph - N/A Snow Light Snow
8:15 PM 31.1 °F 21.9 °F 27.3 °F 86% 29.43 in 10.0 mi West 11.5 mph 24.2 mph N/A   Overcast
8:35 PM 31.6 °F 20.7 °F 26.6 °F 82% 29.42 in 10.0 mi West 16.1 mph 21.9 mph N/A   Overcast
8:55 PM 31.6 °F 19.7 °F 25.5 °F 78% 29.42 in 5.0 mi WNW 19.6 mph 27.6 mph N/A   Overcast
9:15 PM 31.6 °F 20.0 °F 24.8 °F 76% 29.43 in 3.0 mi WNW 18.4 mph 29.9 mph N/A Snow Light Snow
9:35 PM 30.9 °F 19.4 °F 22.5 °F 71% 29.43 in 7.0 mi WNW 17.3 mph 26.5 mph N/A   Mostly Cloudy
9:55 PM 30.9 °F 19.8 °F 22.1 °F 70% 29.43 in 10.0 mi WNW 16.1 mph - N/A   Mostly Cloudy
10:15 PM 30.2 °F 18.5 °F 21.0 °F 69% 29.43 in 10.0 mi WNW 17.3 mph 21.9 mph N/A   Scattered Clouds
10:35 PM 29.7 °F 20.1 °F 20.8 °F 70% 29.43 in 10.0 mi West 11.5 mph - N/A   Clear
10:55 PM 29.3 °F 18.6 °F 21.2 °F 72% 29.43 in 10.0 mi West 13.8 mph - N/A   Scattered Clouds
11:15 PM 30.2 °F 19.8 °F 21.6 °F 70% 29.44 in 10.0 mi WNW 13.8 mph 18.4 mph N/A   Mostly Cloudy
11:35 PM 28.9 °F 16.9 °F 18.1 °F 64% 29.45 in 5.0 mi WNW 17.3 mph 31.1 mph N/A   Haze
11:55 PM 26.6 °F 12.4 °F 11.7 °F 53% 29.46 in 3.0 mi WNW 21.9 mph 34.5 mph N/A Snow Light Snow